Location: Bazugues
(43.4465°N, 0.3432°E)
Time: 12:54:07
(UTC+00:00)

ZACube-1 - Visible Passes

Search period start: 18 May 2026 00:00
Search period end: 28 May 2026 00:00
Orbit: 535 x 593 km, 97.8° (Epoch: 18 May)

Date Brightness Start Highest point End Pass type
(mag) Time Alt. Az. Time Alt. Az. Time Alt. Az.
18 May ? 02:24:06 10° NE 02:27:12 20° E 02:30:19 10° SE visible
19 May ? 02:24:06 10° NE 02:27:12 20° E 02:30:19 10° SE visible
20 May ? 02:24:05 10° NE 02:27:12 20° E 02:30:18 10° SE visible
21 May ? 02:24:04 10° NE 02:27:11 20° E 02:30:17 10° SE visible
22 May ? 02:24:03 10° NE 02:27:10 20° E 02:30:16 10° SE visible
23 May ? 02:24:02 10° NE 02:27:08 20° E 02:30:15 10° SE visible
24 May ? 02:24:00 10° NE 02:27:06 20° E 02:30:12 10° SE visible
25 May ? 02:23:58 10° NE 02:27:04 20° E 02:30:10 10° SE visible
26 May ? 02:23:55 10° NE 02:27:02 20° E 02:30:07 10° SE visible
27 May ? 02:23:52 10° NE 02:26:59 20° E 02:30:04 10° SE visible
